Regional Weather Roundup
Issued by NWS Lake Charles, LA

Home | Current Version | Previous Version | Text Only | Print | Product List | Glossary On
Versions: 1 2 3 4 5 6 7 8 9 10 11 12 13 14 15 16 17 18 19 20 21 22 23 24 25 26 27 28 29 30 31 32 33 34 35 36 37 38 39 40 41 42 43 44 45 46 47 48 49 50
000
ASUS44 KLCH 090310
RWRLCH
REGIONAL WEATHER ROUNDUP
NATIONAL WEATHER SERVICE LAKE CHARLES LA
900 PM CST MON FEB 08 2016

Note: "fair" indicates few or no clouds below 12,000 feet with no
significant weather and/or obstructions to visibility.


ACROSS SOUTHEAST TEXAS

CITY           SKY/WX    TMP DP  RH WIND       PRES   REMARKS
BEAUMONT       CLEAR     49  17  28 NW8       30.24R
BEAUMONT CITY  FAIR      46  17  31 W9        30.25R
ORANGE         CLEAR     49   8  18 NW5       30.25R
JASPER         CLEAR     46  14  27 W3        30.24R
$$

ACROSS CENTRAL LOUISIANA

CITY           SKY/WX    TMP DP  RH WIND       PRES   REMARKS
LEESVILLE      CLEAR     45  15  29 W7        30.17R
FULLERTON      FAIR      46  15  28 VRB3      30.15R
ALEXANDRIA INT CLEAR     42  22  44 W9        30.14R
ESLER FIELD    CLEAR     44  18  35 W3        30.15R
DERIDDER         N/A     44  13  29 W6        30.21S
OAKDALE          N/A     44  15  32 CALM      30.19R
OPELOUSAS      FAIR      42  20  42 W5        30.17S
$$

ACROSS SOUTHWEST AND SOUTH CENTRAL LOUISIANA

CITY           SKY/WX    TMP DP  RH WIND       PRES   REMARKS
SULPHUR        CLEAR     44  21  40 MISG      30.23R
LAKE CHARLES   CLEAR     50  15  24 NW8       30.22R
CHENNAULT INT  NOT AVBL
CAMERON PHI    CLEAR     48  28  46 NW9       30.26R
DEQUINCY       FAIR      44  17  33 CALM      30.22S
JENNINGS       NOT AVBL
LAFAYETTE      CLEAR     48  17  29 NW6       30.18R
NEW IBERIA     CLEAR     44  23  43 NW7       30.19R
ABBEVILLE      FAIR      41  26  54 W7        30.19S
PATTERSON      CLEAR     48  16  27 NW10      30.18R
SALT POINT       N/A     51  29  42 NW8G18    30.17R
$$

SELECTED SITES ACROSS THE REGION

CITY           SKY/WX    TMP DP  RH WIND       PRES   REMARKS
HOUSTON BUSH   PTCLDY    52  13  21 NW8       30.27S
HOUSTON HOBBY  PTCLDY    55   9  16 NW9       30.27S
GALVESTON      CLEAR     53  26  35 NW9       30.29R
COLLEGE STAT   CLEAR     45  17  32 W5        30.30R
CONROE         CLEAR     41  21  44 NW3       30.27R
HUNTSVILLE     CLEAR     48  13  24 W5        30.26R
LUFKIN         CLEAR     44  13  28 W3        30.23R
SHREVEPORT     CLEAR     46  11  24 NW10      30.16S
MONROE         CLEAR     43  19  38 NW8       30.12S
NATCHEZ MS     CLEAR     45  14  29 W8        30.11R
BATON ROUGE    CLEAR     49  13  23 W10G18    30.14R
N.O. INTL ARPT CLEAR     50  15  24 NW15      30.12R
SLIDELL        CLEAR     41  24  51 CALM      30.10R
$$

MARINE REPORTS

STATION/POSITION TIME  SKY/WX   TEMP    WIND        PRES    VSBY
                                AIR SEA DIR/SP/G
                 (UTC)          (F)     (DEG/KT/KT) (MB)    (MI)
BUOY 30 S HIGH I 0250            58 58  310/ 19/ 23 1024.6R
WVE H/P(F/S)=  3/ 4

SEA RIM ST PARK  0300            47     300/  6/  7 1025.1R
PORT ARTHUR      0200               56  320/ 14/ 19 1023.6R
SABINE PASS N    0200            52 56  310/  5/ 11 1025.0R
TEXAS POINT      NOT AVBL
CALCASIEU PASS   0200            49 53  310/  7/  8 1022.2R
LK CHARLES BEACH 0200            52 54              1023.1R
MARSH ISLAND     NOT AVBL
FRESH WATER LOCK 0200            51 55  290/ 11/ 14 1022.1R
AMERADA PASS     0200            51 52  280/ 13/ 15 1021.1R
$$



USA.gov is the U.S. government's official web portal to all federal, state and local government web resources and services.